SCP
0 0 0 0 0 0 0 0 0 0 0 0 0 0 0 0 0 0 0 0 0 0 0 0 0 0 0 0 0 0 0 0 0 0 0 0 0 0 0 0 0 0 0 0 0
0 0 0 0 0 0 0 0 0 0 0 0 0 0 0 0 0 0 0 0 0 0 0 0 0 0 0 0 0 0 0 0 0 0 0 0 0 0 0 0 0 0 0 0 0
0 0 0 0 0 0 0 0 0 0 0 0 0 0 0 0 0 0 0 0 0 0 0 0 0 0 0 0 0 0 0 0 0 0 0 0 0 0 0 0 0 0 0 0 0
0 0 0 0 0 0 0 0 0 0 0 0 0 0 0 0 0 0 0 0 0 0 0 0 0 0 0 0 0 0 0 0 0 0 0 0 0 0 0 0 0 0 0 0 0
0 0 0 0 0 0 0 0 0 0 0 0 0 0 0 0 0 0 0 0 0 0 0 0 0 0 0 0 0 0 0 0 0 0 0 0 0 0 0 0 0 0 0 0 0
0 0 0 0 0 0 0 0 0 0 0 0 0 0 0 0 0 0 0 0 0 0 0 0 0 0 0 0 0 0 0 0 0 0 0 0 0 0 0 0 0 0 0 0 0
0 0 0 0 0 0 0 0 0 0 0 0 0 0 0 0 0 0 0 0 0 0 0 0 0 0 0 0 0 0 0 0 0 0 0 0 0 0 0 0 0 0 0 0 0
0 0 0 0 0 0 0 0 0 0 0 0 0 0 0 0 0 0 0 0 0 0 0 0 0 0 0 0 0 0 0 0 0 0 0 0 0 0 0 0 0 0 0 0 0
0 0 0 0 0 0 0 0 0 0 0 0 0 0 0 0 0 0 0 0 0 0 0 0 0 0 0 0 0 0 0 0 0 0 0 0 0 0 0 0 0 0 0 0 0
0 0 0 0 0 0 0 0 0 0 0 0 0 0 0 0 0 0 0 0 0 0 0 0 0 0 0 0 0 0 0 0 0 0 0 0 0 0 0 0 0 0 0 0 0
0 0 0 0 0 0 0 -0 0 0 0 0 0 0 0 0 0 0 0 0 0 0 0 0 0 0 0 0 0 0 0 0 0 0 0 0 0 0 0 0 0 0 0 0 0
0 0 0 0 0 0 0 0 0 0 -0 0 0 0 0 0 0 0 0 0 0 0 0 0 0 0 0 0 0 0 0 0 0 0 0 0 -0 -0 0 0 0 0 0 0 0
0 0 0 0 0 0 0 0 0 0 0 -0 0 0 0 0 0 0 0 0 0 0 0 0 0 0 0 0 0 0 0 0 0 0 0 0 -0 -0 -0 -0 -0 0 0 0 0
0 0 0 0 0 0 0 0 0 0 0 0 0 0 0 0 0 0 0 0 0 0 0 0 0 0 0 0 0 0 0 0 0 0 0 0 -0 -0 0 0 0 0 0 0 0
0 0 0 0 0 0 0 0 0 0 0 0 0 0 0 0 0 0 0 0 0 0 0 0 0 0 0 0 0 0 0 0 0 0 0 0 0 -0 0 0 0 0 0 0 0
0 0 0 0 0 0 0 0 0 0 0 0 0 0 0 0 0 0 0 0 0 0 0 0 0 0 0 0 0 0 0 0 0 0 0 0 0 -0 0 0 0 0 0 0 0
0 0 0 0 0 0 0 0 0 0 0 0 0 0 0 0 0 0 0 0 0 0 0 0 0 0 0 0 0 0 0 0 0 0 0 0 0 0 0 0 0 0 0 0 0
0 0 0 0 0 0 0 0 0 0 0 0 0 0 0 0 0 0 0 0 0 0 0 0 0 0 0 0 0 0 0 0 0 0 0 0 0 0 0 0 0 0 0 0 0
0 -0 -0 -0 -0 0 0 0 0 0 0 0 0 0 0 0 0 0 0 0 0 0 0 0 0 0 0 0 0 0 0 0 0 0 0 0 0 0 0 0 0 0 0 0 0
0 -0 -0 -0 -0 0 0 0 0 0 0 0 0 0 0 0 0 0 0 0 0 0 0 0 0 0 0 0 0 0 0 0 0 0 0 0 0 0 0 0 0 0 0 0 0
0 -0 -0 0 -0 0 0 0 0 0 0 0 0 0 0 0 0 0 0 0 0 0 0 0 0 0 0 0 0 0 0 0 0 0 0 0 0 0 0 0 0 0 0 0 0
0 0 0 0 0 0 0 0 0 0 0 0 0 0 0 0 0 0 0 0 0 0 0 0 0 0 0 0 0 0 0 0 0 0 0 0 0 0 0 0 0 0 0 0 0
0 0 0 0 -0 0 0 0 0 -0 0 0 0 0 0 0 0 0 -0 -0 0 0 0 0 0 0 0 0 0 0 0 0 0 0 0 0 0 0 0 0 0 0 0 0 0
0 0 0 0 0 0 -0 0 0 -0 -0 -0 0 -0 0 0 0 0 -0 0 0 -0 0 0 0 0 0 0 0 0 0 0 0 0 0 0 0 0 0 0 0 0 0 0 0
0 0 0 0 0 0 0 0 0 0 -0 -0 -0 -0 -0 0 0 0 0 0 0 0 0 0 0 0 0 0 0 0 0 0 0 0 0 0 0 0 0 0 0 0 0 0 0
0 0 0 0 0 0 0 0 0 -0 -0 -0 -0 -0 -0 -0 -0 0 0 0 0 0 0 0 0 0 -0 0 0 0 0 0 0 0 0 0 0 0 0 0 0 0 0 0 0
0 0 0 0 0 0 0 0 0 -0 0 -0 -0 -0 -0 -0 -0 -0 -0 0 0 0 0 0 0 0 0 0 0 0 0 0 0 0 0 0 0 0 0 0 0 0 0 0 0
Wind_Speed_500mb
21 23 23 25 26 26 25 26 28 30 33 35 33 33 35 36 38 41 46 40 30 23 28 21 18 17 17 16 22 14 3 17 15 16 14 5 9 14 12 18 21 27 23 16 19
24 26 29 29 31 35 33 32 32 33 34 35 36 34 36 39 42 48 44 43 34 24 22 18 13 10 9 10 17 10 9 15 10 11 11 5 6 5 7 12 18 29 40 35 27
30 30 32 33 35 40 39 38 37 37 36 38 38 34 35 34 43 10 7 9 27 28 25 19 14 13 8 10 17 14 13 11 10 19 14 6 8 11 9 11 30 38 61 50 46
32 33 33 34 36 40 38 35 38 40 38 38 37 37 33 24 13 8 8 7 6 22 26 19 17 14 9 12 16 8 28 25 9 17 11 9 9 11 28 38 29 32 44 58 54
35 33 35 36 38 42 43 39 39 41 44 40 37 35 32 19 32 37 30 23 19 21 23 24 23 14 9 10 6 12 7 15 44 34 33 23 24 24 27 66 50 50 39 45 58
39 36 36 38 41 42 46 45 44 44 45 43 37 33 27 13 27 28 25 22 20 19 22 28 13 22 12 9 11 5 10 23 20 33 22 13 8 8 59 64 66 73 65 61 59
42 42 41 42 43 45 46 48 49 50 46 36 35 31 34 52 37 31 27 24 22 21 24 28 30 16 5 9 11 10 12 14 15 15 14 6 18 23 96 48 48 69 80 76 68
49 48 47 47 47 50 51 51 52 53 45 32 27 27 24 29 31 36 36 37 29 24 26 24 27 22 11 10 7 6 3 7 4 14 8 16 19 31 38 38 65 75 71 66 74
53 55 55 50 49 50 51 51 50 48 43 29 20 17 21 24 24 28 33 26 23 20 22 21 19 16 6 6 7 4 11 12 14 18 8 14 13 14 11 15 36 45 56 69 74
62 62 62 56 52 50 50 47 47 34 28 22 20 12 27 17 18 18 22 25 15 19 14 16 15 6 2 8 21 15 12 12 13 4 5 10 33 39 38 23 40 50 52 51 59
58 61 66 66 57 44 52 53 19 12 11 20 30 40 65 55 34 28 27 28 18 12 13 10 8 19 30 32 4 4 8 13 5 2 8 17 30 36 41 27 37 56 71 83 87
61 62 67 65 54 46 38 23 20 28 32 55 64 75 81 62 24 40 38 31 20 16 12 5 26 21 9 12 15 13 11 25 13 6 9 17 42 36 40 33 51 69 72 84 84
60 64 69 71 53 22 22 25 25 36 16 37 60 54 50 56 37 42 55 27 12 16 21 18 10 11 20 11 11 10 26 9 17 10 9 10 40 20 14 23 53 66 87 74 84
62 63 65 75 17 37 9 28 29 40 10 16 13 12 15 18 13 35 61 25 11 24 15 19 11 12 11 13 21 30 17 14 10 3 10 2 20 14 13 37 17 36 65 83 73
60 58 58 48 44 50 29 29 23 13 13 5 8 9 22 16 6 5 42 13 14 16 15 16 17 13 19 16 16 13 8 13 8 9 5 5 6 11 5 19 18 25 39 34 38
58 58 54 54 50 37 41 22 13 6 26 12 11 12 9 8 8 11 14 6 2 8 7 8 1 9 13 6 6 17 12 12 9 4 6 17 14 54 14 15 9 7 11 6 15
60 63 65 65 61 45 40 23 9 14 9 15 13 11 7 12 10 12 13 14 13 9 21 4 10 6 7 12 5 3 14 2 6 3 15 4 10 35 21 25 17 19 30 28 28
67 69 59 59 45 34 22 10 27 29 33 11 8 6 14 15 8 14 13 12 24 7 5 18 12 24 15 15 18 17 16 13 17 10 8 6 19 14 19 22 37 26 22 32 23
76 72 55 38 30 29 11 23 17 6 10 13 3 13 9 6 9 10 16 11 18 33 21 13 12 2 5 3 10 14 18 9 12 4 6 10 16 18 29 28 19 15 20 21 6
78 55 38 39 34 29 9 37 15 31 31 17 19 11 12 14 19 19 19 12 12 36 4 11 1 5 3 2 2 9 7 6 4 6 9 11 12 14 21 22 8 14 12 12 9
65 23 30 48 48 27 8 16 11 47 49 26 28 25 27 10 9 9 13 9 12 7 7 8 8 2 4 15 18 9 8 1 6 9 12 4 12 15 19 11 11 14 12 3 2
35 9 39 41 10 7 3 17 45 35 51 18 24 30 36 38 22 8 11 10 8 10 19 16 8 12 18 2 3 2 8 13 9 12 7 5 17 2 8 12 7 14 30 27 26
39 22 38 33 3 5 11 13 27 13 18 14 12 13 41 31 25 25 20 12 14 9 13 13 8 6 3 3 4 9 12 8 2 3 14 13 17 5 7 14 15 17 53 50 48
18 6 17 23 7 5 10 14 16 27 11 5 12 14 32 30 21 19 24 19 39 12 30 17 12 17 30 15 11 14 16 29 13 4 14 15 18 13 17 16 16 28 50 49 52
12 8 9 7 14 6 4 14 33 22 7 11 5 12 16 16 24 27 27 32 24 32 14 10 14 19 33 27 8 14 14 32 33 46 17 45 21 4 7 14 17 36 46 53 54
20 22 12 18 27 15 10 10 26 19 6 11 5 17 14 6 10 28 23 21 17 18 26 12 16 17 14 28 27 29 8 27 45 44 36 43 41 6 14 19 32 36 38 39 40
49 37 33 23 5 0 8 16 32 31 26 25 18 27 26 22 23 39 42 42 33 22 21 12 8 9 28 14 26 31 43 34 17 14 27 29 36 10 15 22 25 31 34 39 40
Wind_Direction_500mb
354 349 344 338 334 328 321 315 312 308 305 302 300 300 302 298 295 291 283 280 272 258 247 260 261 252 237 216 207 190 191 239 232 180 249 190 209 208 225 227 210 212 225 220 215
357 352 347 342 337 331 326 320 313 305 302 300 301 301 302 303 300 291 282 268 259 247 226 249 252 222 205 214 195 185 186 230 225 203 223 239 224 246 235 220 238 231 226 227 214
4 0 356 353 349 345 333 323 315 307 303 301 301 300 302 306 310 282 295 285 241 235 232 251 222 190 224 206 209 197 207 219 239 233 238 229 261 236 202 230 225 225 229 223 213
7 2 358 355 351 349 343 337 327 317 308 302 300 300 300 301 279 265 284 307 263 231 240 229 195 170 203 208 220 234 240 221 234 217 203 218 229 242 217 244 255 252 245 232 217
355 352 348 346 346 343 343 334 334 328 316 304 295 294 291 270 254 271 271 267 261 250 238 211 199 190 203 208 206 223 273 265 251 252 238 246 238 240 251 257 254 251 253 240 230
342 340 338 337 336 336 336 332 329 326 317 301 288 282 268 247 266 264 262 259 253 244 226 206 211 222 268 257 182 248 278 273 275 264 256 230 242 185 259 261 253 250 249 245 236
329 329 331 330 328 329 329 327 326 326 322 301 283 272 261 263 267 261 259 255 248 237 228 218 221 201 232 274 283 295 311 311 236 232 232 196 278 226 258 255 240 241 243 242 240
322 318 319 320 322 324 325 323 322 323 321 309 283 267 260 265 254 257 259 251 245 237 228 225 223 238 226 290 302 285 218 277 197 143 241 153 265 271 291 256 240 245 246 242 239
316 315 314 314 315 316 319 322 320 316 309 304 279 247 262 269 260 257 248 241 229 224 217 214 204 217 193 153 323 245 254 232 313 196 142 188 252 245 253 254 266 260 255 247 244
308 307 306 309 315 318 323 325 317 306 292 288 255 270 245 258 256 250 231 219 208 186 168 186 196 170 97 142 230 201 228 238 234 191 200 253 259 272 269 261 265 271 265 257 251
319 310 304 302 302 316 325 342 343 302 277 251 282 264 280 273 256 238 216 195 184 184 179 200 176 201 200 210 68 137 217 247 249 149 238 239 260 262 271 252 259 261 259 261 259
340 338 329 312 309 307 317 340 314 300 298 284 274 262 262 257 244 220 198 180 176 196 140 109 237 221 161 192 229 251 276 264 279 227 193 282 273 264 263 253 238 248 254 254 255
342 342 340 326 326 313 330 337 329 320 264 282 269 255 247 232 229 220 191 193 175 170 193 190 209 153 173 185 178 222 229 233 233 328 234 327 284 243 269 248 251 251 254 256 255
339 339 341 342 315 345 1 342 339 337 294 259 236 257 201 171 239 219 199 185 193 199 169 236 213 170 162 201 177 249 202 196 227 126 253 37 287 240 265 268 219 244 250 256 255
328 330 335 340 326 335 302 304 313 328 287 267 195 187 168 187 125 182 186 205 179 175 143 237 170 175 202 209 158 229 127 169 156 179 349 197 243 259 84 274 249 244 256 265 268
340 335 327 332 328 336 315 291 292 226 239 273 168 177 143 217 181 130 167 203 156 145 253 248 333 182 193 83 148 144 88 57 42 99 279 181 166 280 211 241 286 267 319 325 344
338 331 331 333 316 315 315 278 218 208 302 253 207 174 206 188 206 175 164 177 170 140 226 131 214 181 150 98 57 153 116 297 332 0 236 209 174 249 305 270 223 259 284 284 292
337 337 338 331 313 297 285 228 221 228 219 65 82 93 188 163 235 180 153 192 230 149 131 186 267 168 176 194 169 195 173 168 200 202 251 135 235 248 231 277 262 268 286 300 309
339 347 348 345 334 312 183 220 219 295 281 342 181 199 273 249 180 147 208 221 207 188 185 163 262 49 16 136 145 186 216 153 104 56 38 227 280 282 261 277 293 254 261 275 315
343 346 356 348 339 341 235 236 274 329 341 353 319 230 227 228 174 182 175 214 227 195 193 201 323 19 6 271 12 183 181 105 354 164 237 261 268 234 295 268 348 346 273 275 298
346 345 340 329 320 293 271 289 285 336 360 340 312 293 285 303 216 223 222 263 212 153 177 152 155 66 79 214 179 157 199 152 135 171 185 252 258 221 241 294 304 334 345 23 359
342 327 345 335 337 334 315 320 305 308 320 307 285 290 293 301 270 278 266 234 124 142 171 217 182 178 194 160 338 235 241 181 149 223 243 145 259 264 245 350 140 44 42 43 48
329 295 333 322 285 301 282 284 298 315 335 314 298 328 332 290 275 251 254 257 206 198 199 186 230 137 334 347 22 210 192 217 121 91 205 159 259 349 46 48 40 61 21 30 34
312 323 315 318 256 244 324 295 306 299 291 289 288 6 352 329 323 282 291 328 330 235 248 172 205 206 219 217 131 184 195 202 178 159 222 223 239 9 48 40 17 21 20 24 27
305 270 273 285 301 299 135 276 299 316 224 309 305 50 19 334 326 2 347 326 326 352 283 225 247 219 235 244 171 195 170 193 205 224 212 249 251 240 17 43 27 35 26 27 20
321 318 289 273 285 292 311 288 298 307 2 294 261 308 311 228 272 303 319 326 292 327 340 305 246 214 229 242 240 237 189 194 201 218 236 257 266 231 269 63 35 25 21 26 20
324 324 310 286 290 102 267 279 293 298 300 264 309 307 301 294 282 274 275 268 245 266 294 287 311 236 246 227 243 235 221 205 207 207 202 226 258 7 50 60 41 30 29 17 12
Wind_Speed_850mb
21 23 23 25 26 26 25 26 28 30 33 35 33 33 35 36 38 41 46 40 30 23 28 21 18 17 17 16 22 14 3 17 15 16 14 5 9 14 12 18 21 27 23 16 19
24 26 29 29 31 35 33 32 32 33 34 35 36 34 36 39 42 48 44 43 34 24 22 18 13 10 9 10 17 10 9 15 10 11 11 5 6 5 7 12 18 29 40 35 27
30 30 32 33 35 40 39 38 37 37 36 38 38 34 35 34 43 10 7 9 27 28 25 19 14 13 8 10 17 14 13 11 10 19 14 6 8 11 9 11 30 38 61 50 46
32 33 33 34 36 40 38 35 38 40 38 38 37 37 33 24 13 8 8 7 6 22 26 19 17 14 9 12 16 8 28 25 9 17 11 9 9 11 28 38 29 32 44 58 54
35 33 35 36 38 42 43 39 39 41 44 40 37 35 32 19 32 37 30 23 19 21 23 24 23 14 9 10 6 12 7 15 44 34 33 23 24 24 27 66 50 50 39 45 58
39 36 36 38 41 42 46 45 44 44 45 43 37 33 27 13 27 28 25 22 20 19 22 28 13 22 12 9 11 5 10 23 20 33 22 13 8 8 59 64 66 73 65 61 59
42 42 41 42 43 45 46 48 49 50 46 36 35 31 34 52 37 31 27 24 22 21 24 28 30 16 5 9 11 10 12 14 15 15 14 6 18 23 96 48 48 69 80 76 68
49 48 47 47 47 50 51 51 52 53 45 32 27 27 24 29 31 36 36 37 29 24 26 24 27 22 11 10 7 6 3 7 4 14 8 16 19 31 38 38 65 75 71 66 74
53 55 55 50 49 50 51 51 50 48 43 29 20 17 21 24 24 28 33 26 23 20 22 21 19 16 6 6 7 4 11 12 14 18 8 14 13 14 11 15 36 45 56 69 74
62 62 62 56 52 50 50 47 47 34 28 22 20 12 27 17 18 18 22 25 15 19 14 16 15 6 2 8 21 15 12 12 13 4 5 10 33 39 38 23 40 50 52 51 59
58 61 66 66 57 44 52 53 19 12 11 20 30 40 65 55 34 28 27 28 18 12 13 10 8 19 30 32 4 4 8 13 5 2 8 17 30 36 41 27 37 56 71 83 87
61 62 67 65 54 46 38 23 20 28 32 55 64 75 81 62 24 40 38 31 20 16 12 5 26 21 9 12 15 13 11 25 13 6 9 17 42 36 40 33 51 69 72 84 84
60 64 69 71 53 22 22 25 25 36 16 37 60 54 50 56 37 42 55 27 12 16 21 18 10 11 20 11 11 10 26 9 17 10 9 10 40 20 14 23 53 66 87 74 84
62 63 65 75 17 37 9 28 29 40 10 16 13 12 15 18 13 35 61 25 11 24 15 19 11 12 11 13 21 30 17 14 10 3 10 2 20 14 13 37 17 36 65 83 73
60 58 58 48 44 50 29 29 23 13 13 5 8 9 22 16 6 5 42 13 14 16 15 16 17 13 19 16 16 13 8 13 8 9 5 5 6 11 5 19 18 25 39 34 38
58 58 54 54 50 37 41 22 13 6 26 12 11 12 9 8 8 11 14 6 2 8 7 8 1 9 13 6 6 17 12 12 9 4 6 17 14 54 14 15 9 7 11 6 15
60 63 65 65 61 45 40 23 9 14 9 15 13 11 7 12 10 12 13 14 13 9 21 4 10 6 7 12 5 3 14 2 6 3 15 4 10 35 21 25 17 19 30 28 28
67 69 59 59 45 34 22 10 27 29 33 11 8 6 14 15 8 14 13 12 24 7 5 18 12 24 15 15 18 17 16 13 17 10 8 6 19 14 19 22 37 26 22 32 23
76 72 55 38 30 29 11 23 17 6 10 13 3 13 9 6 9 10 16 11 18 33 21 13 12 2 5 3 10 14 18 9 12 4 6 10 16 18 29 28 19 15 20 21 6
78 55 38 39 34 29 9 37 15 31 31 17 19 11 12 14 19 19 19 12 12 36 4 11 1 5 3 2 2 9 7 6 4 6 9 11 12 14 21 22 8 14 12 12 9
65 23 30 48 48 27 8 16 11 47 49 26 28 25 27 10 9 9 13 9 12 7 7 8 8 2 4 15 18 9 8 1 6 9 12 4 12 15 19 11 11 14 12 3 2
35 9 39 41 10 7 3 17 45 35 51 18 24 30 36 38 22 8 11 10 8 10 19 16 8 12 18 2 3 2 8 13 9 12 7 5 17 2 8 12 7 14 30 27 26
39 22 38 33 3 5 11 13 27 13 18 14 12 13 41 31 25 25 20 12 14 9 13 13 8 6 3 3 4 9 12 8 2 3 14 13 17 5 7 14 15 17 53 50 48
18 6 17 23 7 5 10 14 16 27 11 5 12 14 32 30 21 19 24 19 39 12 30 17 12 17 30 15 11 14 16 29 13 4 14 15 18 13 17 16 16 28 50 49 52
12 8 9 7 14 6 4 14 33 22 7 11 5 12 16 16 24 27 27 32 24 32 14 10 14 19 33 27 8 14 14 32 33 46 17 45 21 4 7 14 17 36 46 53 54
20 22 12 18 27 15 10 10 26 19 6 11 5 17 14 6 10 28 23 21 17 18 26 12 16 17 14 28 27 29 8 27 45 44 36 43 41 6 14 19 32 36 38 39 40
49 37 33 23 5 0 8 16 32 31 26 25 18 27 26 22 23 39 42 42 33 22 21 12 8 9 28 14 26 31 43 34 17 14 27 29 36 10 15 22 25 31 34 39 40
Wind_Direction_850mb
354 349 344 338 334 328 321 315 312 308 305 302 300 300 302 298 295 291 283 280 272 258 247 260 261 252 237 216 207 190 191 239 232 180 249 190 209 208 225 227 210 212 225 220 215
357 352 347 342 337 331 326 320 313 305 302 300 301 301 302 303 300 291 282 268 259 247 226 249 252 222 205 214 195 185 186 230 225 203 223 239 224 246 235 220 238 231 226 227 214
4 0 356 353 349 345 333 323 315 307 303 301 301 300 302 306 310 282 295 285 241 235 232 251 222 190 224 206 209 197 207 219 239 233 238 229 261 236 202 230 225 225 229 223 213
7 2 358 355 351 349 343 337 327 317 308 302 300 300 300 301 279 265 284 307 263 231 240 229 195 170 203 208 220 234 240 221 234 217 203 218 229 242 217 244 255 252 245 232 217
355 352 348 346 346 343 343 334 334 328 316 304 295 294 291 270 254 271 271 267 261 250 238 211 199 190 203 208 206 223 273 265 251 252 238 246 238 240 251 257 254 251 253 240 230
342 340 338 337 336 336 336 332 329 326 317 301 288 282 268 247 266 264 262 259 253 244 226 206 211 222 268 257 182 248 278 273 275 264 256 230 242 185 259 261 253 250 249 245 236
329 329 331 330 328 329 329 327 326 326 322 301 283 272 261 263 267 261 259 255 248 237 228 218 221 201 232 274 283 295 311 311 236 232 232 196 278 226 258 255 240 241 243 242 240
322 318 319 320 322 324 325 323 322 323 321 309 283 267 260 265 254 257 259 251 245 237 228 225 223 238 226 290 302 285 218 277 197 143 241 153 265 271 291 256 240 245 246 242 239
316 315 314 314 315 316 319 322 320 316 309 304 279 247 262 269 260 257 248 241 229 224 217 214 204 217 193 153 323 245 254 232 313 196 142 188 252 245 253 254 266 260 255 247 244
308 307 306 309 315 318 323 325 317 306 292 288 255 270 245 258 256 250 231 219 208 186 168 186 196 170 97 142 230 201 228 238 234 191 200 253 259 272 269 261 265 271 265 257 251
319 310 304 302 302 316 325 342 343 302 277 251 282 264 280 273 256 238 216 195 184 184 179 200 176 201 200 210 68 137 217 247 249 149 238 239 260 262 271 252 259 261 259 261 259
340 338 329 312 309 307 317 340 314 300 298 284 274 262 262 257 244 220 198 180 176 196 140 109 237 221 161 192 229 251 276 264 279 227 193 282 273 264 263 253 238 248 254 254 255
342 342 340 326 326 313 330 337 329 320 264 282 269 255 247 232 229 220 191 193 175 170 193 190 209 153 173 185 178 222 229 233 233 328 234 327 284 243 269 248 251 251 254 256 255
339 339 341 342 315 345 1 342 339 337 294 259 236 257 201 171 239 219 199 185 193 199 169 236 213 170 162 201 177 249 202 196 227 126 253 37 287 240 265 268 219 244 250 256 255
328 330 335 340 326 335 302 304 313 328 287 267 195 187 168 187 125 182 186 205 179 175 143 237 170 175 202 209 158 229 127 169 156 179 349 197 243 259 84 274 249 244 256 265 268
340 335 327 332 328 336 315 291 292 226 239 273 168 177 143 217 181 130 167 203 156 145 253 248 333 182 193 83 148 144 88 57 42 99 279 181 166 280 211 241 286 267 319 325 344
338 331 331 333 316 315 315 278 218 208 302 253 207 174 206 188 206 175 164 177 170 140 226 131 214 181 150 98 57 153 116 297 332 0 236 209 174 249 305 270 223 259 284 284 292
337 337 338 331 313 297 285 228 221 228 219 65 82 93 188 163 235 180 153 192 230 149 131 186 267 168 176 194 169 195 173 168 200 202 251 135 235 248 231 277 262 268 286 300 309
339 347 348 345 334 312 183 220 219 295 281 342 181 199 273 249 180 147 208 221 207 188 185 163 262 49 16 136 145 186 216 153 104 56 38 227 280 282 261 277 293 254 261 275 315
343 346 356 348 339 341 235 236 274 329 341 353 319 230 227 228 174 182 175 214 227 195 193 201 323 19 6 271 12 183 181 105 354 164 237 261 268 234 295 268 348 346 273 275 298
346 345 340 329 320 293 271 289 285 336 360 340 312 293 285 303 216 223 222 263 212 153 177 152 155 66 79 214 179 157 199 152 135 171 185 252 258 221 241 294 304 334 345 23 359
342 327 345 335 337 334 315 320 305 308 320 307 285 290 293 301 270 278 266 234 124 142 171 217 182 178 194 160 338 235 241 181 149 223 243 145 259 264 245 350 140 44 42 43 48
329 295 333 322 285 301 282 284 298 315 335 314 298 328 332 290 275 251 254 257 206 198 199 186 230 137 334 347 22 210 192 217 121 91 205 159 259 349 46 48 40 61 21 30 34
312 323 315 318 256 244 324 295 306 299 291 289 288 6 352 329 323 282 291 328 330 235 248 172 205 206 219 217 131 184 195 202 178 159 222 223 239 9 48 40 17 21 20 24 27
305 270 273 285 301 299 135 276 299 316 224 309 305 50 19 334 326 2 347 326 326 352 283 225 247 219 235 244 171 195 170 193 205 224 212 249 251 240 17 43 27 35 26 27 20
321 318 289 273 285 292 311 288 298 307 2 294 261 308 311 228 272 303 319 326 292 327 340 305 246 214 229 242 240 237 189 194 201 218 236 257 266 231 269 63 35 25 21 26 20
324 324 310 286 290 102 267 279 293 298 300 264 309 307 301 294 282 274 275 268 245 266 294 287 311 236 246 227 243 235 221 205 207 207 202 226 258 7 50 60 41 30 29 17 12